Weather History for Charlottetown, PE

Change the Weather History Date:

Friday, June 14, 2013

  Actual Average Record
Temperature  
Mean Temperature 52 °F -  
Max Temperature 57 °F 70 °F 80 °F (1999)
Min Temperature 47 °F 52 °F 39 °F (2002)
Degree Days  
Heating Degree Days 13    
Growing Degree Days 2 (Base 50)    
Moisture  
Dew Point 48 °F    
Average Humidity 86    
Maximum Humidity 100    
Minimum Humidity 71    
Precipitation  
Precipitation 0.02 in 0.11 in - ()
Sea Level Pressure  
Sea Level Pressure 29.72 in    
Wind  
Wind Speed 3 mph ()    
Max Wind Speed 7 mph    
Max Gust Speed -    
Visibility 14.9 miles    
Events Rain    
Averages and records for this station are not official NWS values.
T = Trace of Precipitation, MM = Missing Value Source: Averaged Metar Reports

Daily Weather History Graph

Daily Weather History Graph

Search for Another Location

Airport:

Trip Planner

Search our weather history database for the weather conditions in past years. The results will help you decide how hot, cold, wet, or windy it might be!

Date:

Astronomy

Jun. 14, 2013 Rise Set
Actual Time 5:19 AM ADT 9:05 PM ADT
Civil Twilight 4:41 AM ADT 9:44 PM ADT
Nautical Twilight 3:48 AM ADT 10:37 PM ADT
Astronomical Twilight 2:34 AM ADT 11:51 PM ADT
Moon 11:07 AM ADT (6/14) No Moon Set
Length of Visible Light 17h 03m
Length of Day
15h 46m
Waxing Crescent, 29% of the Moon is Illuminated
Jun 14
Waxing Crescent
Jun 16
First Quarter
Jun 23
Full
Jun 30
Last Quarter
Jul 8
New

Hourly Weather History & Observations

Time (ADT) Temp. Dew Point Humidity Pressure Visibility Wind Dir Wind Speed Gust Speed Precip Events Conditions
12:00 AM 48.2 °F 44.6 °F 87% 29.76 in 15.0 mi North 4.6 mph - N/A   Mostly Cloudy
1:00 AM 48.2 °F 46.4 °F 93% 29.76 in 15.0 mi North 2.3 mph - N/A   Overcast
2:00 AM 48.2 °F 46.4 °F 93% 29.75 in 15.0 mi North 3.5 mph - N/A   Overcast
3:00 AM 47 °F 46 °F 94% 29.75 in 15 mi NNW 2.3 mph - -   Overcast
3:00 AM 48.2 °F 46.4 °F 93% 29.75 in 15.0 mi Calm Calm - N/A   Overcast
4:00 AM 48.2 °F 46.4 °F 93% 29.74 in 15.0 mi ENE 2.3 mph - N/A   Overcast
5:00 AM 48.2 °F 46.4 °F 93% 29.75 in 15.0 mi Calm Calm - N/A   Mostly Cloudy
6:00 AM 48.2 °F 46.4 °F 93% 29.74 in 15.0 mi North 2.3 mph - N/A   Overcast
7:00 AM 50.0 °F 48.2 °F 94% 29.74 in 15.0 mi East 3.5 mph - N/A   Mostly Cloudy
8:00 AM 50.0 °F 46.4 °F 87% 29.75 in 15.0 mi SSE 3.5 mph - N/A   Mostly Cloudy
9:00 AM 52 °F 46 °F 74% 29.76 in 15 mi SE 3.5 mph - -   Mostly Cloudy
9:00 AM 51.8 °F 46.4 °F 82% 29.76 in 15.0 mi SSE 3.5 mph - N/A   Mostly Cloudy
10:00 AM 51.8 °F 46.4 °F 82% 29.76 in 15.0 mi SE 3.5 mph - N/A   Mostly Cloudy
10:46 AM 55.4 °F 46.4 °F 72% 29.73 in 15.0 mi ENE 6.9 mph - N/A   Mostly Cloudy
11:00 AM 55.4 °F 46.4 °F 72% 29.73 in 15.0 mi ENE 6.9 mph - N/A   Mostly Cloudy
12:00 PM 55.4 °F 48.2 °F 77% 29.72 in 15.0 mi East 6.9 mph - N/A   Mostly Cloudy
1:00 PM 57.2 °F 50.0 °F 77% 29.71 in 15.0 mi ESE 6.9 mph - N/A   Overcast
2:00 PM 55.4 °F 48.2 °F 77% 29.70 in 15.0 mi NE 6.9 mph - N/A   Overcast
3:00 PM 55 °F 48 °F 71% 29.71 in 15 mi NNE 5.8 mph - -   Overcast
3:00 PM 55.4 °F 48.2 °F 77% 29.71 in 15.0 mi NE 4.6 mph - N/A   Overcast
3:22 PM 55.4 °F 48.2 °F 77% 29.70 in 15.0 mi North 4.6 mph - N/A Rain Light Rain
4:00 PM 53.6 °F 50.0 °F 88% 29.71 in 15.0 mi East 2.3 mph - N/A Rain Light Rain
5:00 PM 55.4 °F 50.0 °F 82% 29.71 in 15.0 mi Calm Calm - N/A Rain Light Rain
6:00 PM 55.4 °F 51.8 °F 88% 29.69 in 15.0 mi East 3.5 mph - N/A Rain Light Rain
6:09 PM 55.4 °F 50.0 °F 82% 29.70 in 15.0 mi East 3.5 mph - N/A   Overcast
7:00 PM 53.6 °F 50.0 °F 88% 29.69 in 15.0 mi NNE 4.6 mph - N/A   Overcast
8:00 PM 53.6 °F 50.0 °F 88% 29.70 in 15.0 mi North 3.5 mph - N/A   Overcast
9:00 PM 51 °F 49 °F 91% 29.70 in 15 mi North 4.6 mph - -   Partly Cloudy
9:00 PM 51.8 °F 50.0 °F 94% 29.70 in 15.0 mi North 4.6 mph - N/A   Overcast
10:00 PM 50.0 °F 48.2 °F 94% 29.70 in 15.0 mi North 4.6 mph - N/A   Mostly Cloudy
11:00 PM 48.2 °F 48.2 °F 100% 29.71 in 15.0 mi NNW 2.3 mph - N/A   Mostly Cloudy
11:17 PM 48.2 °F 48.2 °F 100% 29.70 in 12.0 mi NW 2.3 mph - N/A   Mostly Cloudy